Temp
14 15 14 14 14 14 15 15 14 10 12 12 13 13 14 14 15 14 14 14 14 14 14 13 13 13 13 13 13 12 13 12 12 11 10 10 10 9
13 13 14 14 14 14 14 14 15 15 12 13 13 14 14 14 15 15 15 14 14 14 14 14 14 13 13 13 13 12 13 13 12 12 12 11 10 10
13 12 12 14 14 13 13 14 14 15 14 14 14 15 13 12 13 14 14 14 14 14 14 14 13 13 13 13 13 12 12 12 12 12 12 11 11 11
13 12 12 12 12 12 12 13 13 13 15 14 14 13 13 12 12 12 14 14 14 14 14 14 13 13 14 13 13 13 12 12 12 12 12 11 11 11
12 12 12 12 12 11 11 12 13 13 13 14 13 13 13 12 11 12 11 11 13 13 13 13 13 12 13 13 13 12 12 12 12 12 11 10 11 10
10 12 12 12 12 12 11 11 11 12 12 13 12 12 13 12 12 10 10 11 11 13 13 13 13 13 12 12 13 12 12 12 12 11 11 11 11 11
9 12 12 12 12 12 12 11 11 11 12 11 12 12 11 11 10 11 11 12 12 13 13 13 13 13 13 13 13 12 12 12 12 11 11 11 10 10
9 12 12 12 12 12 12 12 11 11 12 11 12 12 12 12 12 12 11 10 9 13 12 13 13 13 13 13 13 12 12 12 11 11 11 11 11 10
10 12 12 12 12 12 12 12 11 12 12 12 12 12 12 12 12 11 11 11 13 13 13 11 12 13 13 13 13 12 12 11 11 11 11 10 10 10
7 11 12 12 11 11 11 11 10 11 12 12 12 13 12 13 12 13 12 12 12 13 12 11 12 12 13 12 12 12 12 11 11 10 10 10 10 10
7 10 11 12 11 11 11 10 10 10 11 12 12 12 12 12 13 12 11 9 8 10 10 11 10 10 10 11 11 11 11 10 10 10 9 9 9 9
7 10 11 12 12 11 11 11 11 11 10 10 10 11 12 11 12 12 11 10 9 7 10 8 9 9 8 9 10 9 10 10 9 9 9 9 8 8
10 12 12 12 12 11 11 11 11 11 10 10 10 10 10 10 10 11 10 10 9 10 11 9 9 8 9 8 8 9 9 8 7 8 8 8 7 7
10 11 11 11 11 11 11 11 11 11 11 10 10 10 9 9 9 10 11 10 10 11 11 11 10 10 8 5 8 8 7 7 7 8 8 7 6 5
10 12 12 12 11 11 11 11 11 10 10 10 10 9 9 9 9 9 10 9 9 9 9 10 10 9 9 8 8 7 7 7 7 6 6 6 5 4
9 10 12 11 10 10 10 10 10 10 10 9 9 8 8 8 8 9 8 7 7 7 7 7 7 8 7 6 7 6 5 6 5 4 5 4 4 4
9 9 9 10 9 10 10 9 10 10 9 9 7 7 7 7 7 8 8 6 6 4 4 5 5 5 5 5 4 4 4 4 4 3 3 2 2 2
7 7 9 10 10 9 9 9 9 9 8 7 7 6 5 5 5 5 7 6 4 3 3 2 2 2 2 1 2 3 2 2 1 1 1 1 1 1
0 1 0 0 2 7 8 7 7 7 7 6 6 5 5 5 4 3 4 4 2 2 1 2 0 1 0 1 -2 -0 0 -0 -0 -1 -1 -1 -1 -1
-4 -3 -2 -1 -1 -1 0 1 2 3 4 4 3 4 5 4 2 1 2 2 1 -0 -1 -0 -0 1 1 1 -2 -4 -2 -1 -1 -2 -2 -2 -2 -2
-5 -5 -5 -4 -4 -2 -1 -1 0 0 1 1 1 2 2 2 0 1 0 0 -0 -1 -2 -2 -1 -0 0 0 -2 -5 -4 -3 -3 -3 -3 -3 -3 -3
-6 -6 -6 -5 -5 -4 -4 -3 -3 -1 -1 -1 -1 -0 -0 0 -1 -1 -1 -1 -2 -2 -3 -3 -2 -2 -1 -2 -4 -5 -5 -5 -4 -4 -4 -4 -5 -5
-6 -6 -6 -6 -6 -5 -5 -4 -4 -4 -3 -3 -2 -2 -2 -2 -2 -2 -2 -3 -4 -4 -4 -4 -4 -3 -4 -4 -5 -6 -6 -5 -6 -5 -6 -6 -6 -6
Height
762 767 772 778 782 787 792 796 802 811 811 812 816 819 824 829 832 835 838 842 846 849 851 854 857 860 862 864 866 869 871 873 874 876 877 878 880 882
752 756 761 768 774 777 782 787 791 796 802 804 807 812 816 820 823 827 831 834 838 842 844 847 850 853 856 859 861 863 864 866 868 869 870 872 873 875
740 746 749 756 762 767 772 778 782 786 791 797 801 804 809 813 816 819 823 826 830 834 837 840 842 845 848 851 854 857 858 860 862 863 864 865 867 867
729 735 739 748 751 755 761 768 773 777 783 789 792 795 799 803 808 811 814 817 821 825 830 833 835 838 841 844 847 849 852 852 853 855 857 858 859 861
722 720 727 737 739 744 750 757 763 769 773 779 783 787 791 795 801 805 807 810 813 818 822 825 828 830 833 836 839 841 844 845 847 847 849 850 851 853
713 706 714 721 726 733 738 743 752 758 764 769 773 778 782 785 791 796 800 802 805 810 815 818 821 822 824 828 829 832 835 837 839 840 841 842 844 844
701 697 699 707 715 718 726 732 740 745 755 761 765 770 772 776 780 784 790 792 798 802 806 811 814 816 818 819 823 825 828 829 831 831 833 834 836 837
691 692 686 692 700 707 712 718 725 732 741 749 754 755 760 764 770 775 782 787 792 792 797 801 806 808 809 811 814 818 820 822 824 824 825 825 827 828
677 675 677 678 684 694 701 708 715 721 726 732 739 744 751 756 762 767 772 776 779 783 789 794 797 800 802 804 807 809 811 813 815 816 816 817 818 820
663 663 667 666 673 681 689 699 704 709 714 722 728 735 739 748 752 759 763 770 775 778 782 786 788 791 794 795 798 801 802 804 806 807 809 809 811 812
651 653 651 659 662 672 680 687 694 697 704 711 717 726 733 736 744 752 759 766 770 771 775 779 781 784 786 788 790 792 794 796 799 801 802 804 804 806
631 636 637 647 653 659 668 675 681 685 692 702 710 717 723 728 736 739 745 754 759 764 765 771 774 778 781 780 781 784 786 789 792 794 796 797 799 799
615 615 619 631 636 644 653 662 666 676 683 691 699 706 712 718 725 730 735 742 745 750 752 759 765 769 772 772 774 776 779 782 785 787 789 791 793 793
596 597 608 615 623 628 640 651 658 667 673 680 687 693 700 706 711 719 725 730 735 739 744 750 755 759 763 768 769 771 773 775 779 781 783 784 786 789
583 586 594 603 612 620 629 640 647 655 661 668 675 679 686 692 700 709 716 721 728 735 739 744 749 755 759 760 762 765 768 770 773 775 778 780 782 784
571 576 585 594 602 608 619 626 635 642 648 657 665 673 678 684 691 696 704 713 722 729 735 739 743 748 751 755 758 761 764 767 768 771 773 776 778 780
562 570 577 584 592 602 607 618 626 633 638 646 654 659 669 676 682 689 696 707 714 721 728 733 738 743 746 750 754 757 759 762 764 768 770 772 774 777
553 559 566 573 591 598 602 609 616 622 630 635 645 653 659 669 677 685 693 700 706 712 719 725 732 738 744 749 750 752 755 759 761 763 766 770 771 773
551 560 566 579 586 594 597 600 606 614 621 627 635 643 651 661 672 678 685 692 701 708 714 719 725 732 740 744 748 750 752 755 759 762 764 766 769 771
564 564 570 581 592 590 593 596 604 609 616 623 630 632 641 652 665 672 680 688 696 704 712 717 723 729 732 735 742 749 750 754 756 761 763 765 767 769
580 579 581 586 593 595 596 603 607 610 616 624 628 632 640 650 659 666 674 685 694 703 710 715 722 728 732 734 739 748 751 755 757 760 763 765 766 768
596 591 595 597 601 608 605 609 617 616 619 623 628 638 647 653 662 669 677 685 696 703 708 716 722 727 731 734 741 746 751 756 759 760 762 764 766 769
628 618 610 607 623 628 619 620 625 619 626 628 636 646 653 660 668 674 680 686 696 706 709 717 723 728 733 739 742 747 751 756 759 762 763 764 766 768
Wind_Speed
41 39 38 37 37 39 36 34 20 6 9 17 20 33 42 43 40 38 40 41 38 36 34 33 33 30 29 28 28 28 28 26 24 26 32 29 28 26
40 41 39 37 36 40 38 38 36 25 6 26 29 29 33 44 45 42 40 41 42 40 37 35 35 34 32 30 27 26 25 24 24 24 24 33 31 30
40 40 41 41 37 37 37 38 36 32 17 19 25 30 34 33 40 44 42 42 43 41 41 40 38 36 35 32 31 30 27 27 28 27 25 27 32 31
43 39 42 40 39 39 35 36 35 34 31 22 25 26 26 35 33 38 43 44 43 41 39 37 35 32 33 31 31 30 29 28 29 30 28 29 29 27
41 45 43 42 42 38 37 36 36 33 35 29 24 26 28 33 28 28 31 35 44 42 37 34 33 33 34 32 31 30 28 26 25 25 27 28 29 30
39 44 44 45 44 42 41 40 35 32 30 31 25 25 31 32 33 26 25 31 32 36 34 32 30 28 28 30 29 29 26 25 24 24 24 24 25 26
38 42 45 48 48 47 43 39 36 34 31 30 24 22 24 20 29 31 29 31 31 31 30 29 28 27 28 26 28 28 28 27 25 25 26 25 25 25
42 42 48 51 51 54 49 45 46 41 37 33 32 28 29 32 33 33 27 19 9 31 30 32 31 31 29 31 30 30 29 29 28 26 26 25 26 26
38 40 43 46 52 52 54 52 49 51 48 41 36 34 32 33 34 30 31 26 22 23 27 29 32 32 33 32 32 31 30 31 31 29 28 27 26 26
44 37 45 37 44 46 44 45 46 50 49 44 41 39 39 37 39 39 37 31 24 22 24 15 23 26 26 25 26 26 27 30 31 30 29 27 26 26
47 45 35 42 42 51 43 41 40 41 49 47 46 38 38 38 36 33 27 23 10 16 26 20 18 23 24 25 24 25 24 25 26 26 24 25 24 23
47 49 47 53 49 49 49 41 38 39 38 42 45 42 39 35 38 39 34 27 18 9 26 23 21 17 5 16 22 22 24 25 26 25 24 23 21 19
43 42 44 61 52 56 60 44 43 39 40 41 41 36 39 40 43 40 40 35 31 19 19 29 22 23 12 6 9 15 23 25 23 22 22 21 19 20
38 32 34 48 57 56 56 50 44 43 37 35 34 34 34 34 38 42 40 37 36 33 28 24 14 25 17 10 8 11 15 18 19 17 17 18 16 16
41 38 36 46 60 54 58 54 45 41 34 31 31 31 37 39 42 41 36 33 31 27 24 23 26 22 23 16 8 12 13 18 20 17 16 16 16 17
33 31 34 32 48 47 49 54 44 39 37 35 32 32 37 37 38 38 35 33 28 24 24 24 25 25 24 22 17 12 15 7 13 15 14 13 14 16
33 27 24 28 24 29 32 36 36 34 33 31 29 35 34 36 34 37 34 34 19 23 22 21 22 22 20 21 18 15 15 13 11 8 9 10 10 11
25 16 21 24 26 24 26 30 30 30 32 36 33 32 31 32 33 34 32 30 23 25 27 25 23 18 10 8 12 12 14 12 11 10 10 7 5 5
18 17 19 13 14 21 25 25 25 29 34 35 35 34 35 35 34 30 28 26 19 21 22 28 25 17 4 3 5 9 10 10 9 8 7 6 3 3
25 22 22 23 17 19 15 20 22 28 31 30 23 34 34 34 27 24 24 22 20 18 19 22 21 20 10 7 8 6 8 9 8 6 4 2 2 3
28 31 30 28 26 25 28 23 24 24 24 25 25 25 25 26 21 22 21 21 22 19 16 17 17 12 15 17 12 8 11 9 6 5 4 2 2 3
34 34 34 36 31 27 30 28 23 27 31 27 30 26 23 22 23 24 24 23 20 22 25 23 19 17 14 12 13 14 11 9 7 5 5 4 3 3
31 34 38 42 33 27 31 33 30 32 30 32 31 28 29 28 26 27 28 28 29 27 28 25 20 20 20 18 18 14 12 9 7 8 8 5 2 2
Wind_Direction
216 211 210 213 211 211 211 206 197 187 215 215 219 228 231 232 232 230 229 227 227 229 232 235 239 238 241 244 245 249 251 254 256 248 239 235 237 235
215 214 210 214 212 210 210 210 212 214 209 211 220 226 231 231 231 230 233 232 229 231 232 236 240 244 246 248 251 253 255 253 253 258 258 246 240 241
216 215 212 210 210 206 206 211 211 210 217 225 230 234 228 232 235 233 233 234 235 236 238 239 241 243 247 249 253 256 260 260 261 264 261 256 252 258
217 212 210 209 205 207 208 211 211 211 215 222 223 223 229 227 229 232 232 234 236 241 237 242 244 243 250 249 255 258 262 263 263 263 261 259 262 263
241 210 210 208 207 205 205 211 211 211 214 217 215 216 220 218 219 226 234 237 240 241 241 241 246 248 248 247 249 254 257 260 265 268 263 259 259 262
263 211 208 208 205 205 202 205 207 206 207 211 211 202 209 212 218 215 222 229 232 235 238 241 245 245 242 242 244 245 247 255 260 264 265 265 265 267
251 222 207 210 212 208 206 205 202 201 209 210 211 200 193 194 199 215 222 227 227 230 231 236 236 233 236 238 242 244 246 251 260 264 264 263 266 267
248 242 214 209 212 211 208 207 202 198 205 209 213 211 206 205 206 208 208 201 209 226 225 233 234 238 242 244 246 251 252 253 258 261 260 260 263 265
253 234 225 212 207 210 211 210 210 210 212 206 208 213 211 210 211 203 206 207 218 219 217 230 236 239 245 248 250 251 252 252 257 260 258 259 260 263
249 239 222 208 204 205 204 208 209 208 211 211 212 212 214 216 216 217 214 211 217 219 213 202 228 233 241 245 245 248 251 252 251 253 256 253 257 261
239 237 229 212 203 206 203 203 205 207 212 216 220 218 216 209 212 208 199 188 197 205 211 214 225 229 242 241 244 246 250 249 250 249 249 254 256 257
234 232 222 221 218 210 204 203 205 206 201 208 216 213 217 219 222 213 208 196 194 194 220 198 212 207 215 236 237 238 241 242 242 244 248 250 249 251
232 218 218 220 213 212 208 207 207 203 199 203 207 210 209 212 217 224 217 207 194 206 202 198 202 206 209 178 221 232 238 239 241 242 248 252 249 251
224 197 207 211 205 207 209 210 208 205 200 200 201 204 202 199 200 206 217 220 223 218 210 206 203 209 203 190 201 220 226 227 230 233 238 237 233 235
226 208 204 213 204 202 205 205 201 195 196 195 201 194 195 199 204 205 208 209 213 214 214 216 219 222 222 212 204 205 204 220 223 227 230 233 232 228
216 192 193 198 196 198 203 204 200 198 193 192 191 187 190 191 197 201 193 198 197 198 207 211 217 222 216 222 219 203 205 195 208 220 227 233 231 231
209 196 183 175 195 203 197 198 199 195 187 186 180 179 183 188 190 193 191 190 183 187 191 201 207 214 216 219 204 210 201 204 212 216 221 229 236 240
175 167 187 186 200 205 203 191 193 187 185 179 181 182 175 179 181 186 191 193 186 186 191 189 187 178 177 190 207 199 205 208 207 209 214 220 230 240
95 107 89 92 128 193 188 177 173 179 179 177 179 176 174 176 177 178 184 183 176 179 187 190 181 171 153 161 168 188 176 182 180 183 196 201 213 266
62 69 78 82 82 84 105 134 150 158 165 167 166 163 166 168 168 163 168 166 161 161 167 182 183 186 174 164 142 116 150 153 152 154 150 182 257 287
52 62 63 64 64 72 79 84 112 115 127 139 139 142 153 157 145 149 151 156 150 147 135 140 162 170 148 134 108 109 101 116 124 132 122 89 42 15
36 53 58 57 53 63 73 76 78 93 98 96 103 115 125 132 125 129 131 130 130 130 124 130 137 140 132 121 113 119 113 102 100 92 83 79 69 63
30 49 58 56 49 52 68 77 71 70 79 87 92 99 108 104 109 113 115 117 119 118 122 116 113 113 108 112 114 108 106 104 97 95 86 77 63 289